{"data":{"norad_id":66024,"epoch":"2026-09-20T05:49:42.662496Z","epoch_age_seconds":125257,"freshness":"FRESH","line1":"1 66024U 25232V   26263.24285489  .00016065  00000+0  48551-3 0  9996","line2":"2 66024  53.1594 276.6017 0001288 105.0608 255.0538 15.34404038 53272","mean_motion":15.34404038,"eccentricity":0.0001288,"inclination_deg":53.1594,"raan_deg":276.6017,"arg_perigee_deg":105.0608,"mean_anomaly_deg":255.0538,"bstar":0.00048551,"rev_number":5327,"period_min":93.847511107762,"perigee_km":461.81013976934,"apogee_km":463.57233712357,"semimajor_km":6840.8282384465,"source":"CELESTRAK","updated_at":"2026-09-21T09:00:35.772196Z"}}